Tracking 19485 objects as of 21-Jan-2019
HD Live streaming from Space Station
objects crossing your sky now

COSMOS 1859

Track COSMOS 1859 now!
10-day predictions
COSMOS 1859 is classified as:


NORAD ID: 18120
Int'l Code: 1987-051H
Perigee: 1,394.3 km
Apogee: 1,483.2 km
Inclination: 74.0 °
Period: 114.5 minutes
Semi major axis: 7809 km
RCS: 0.6713 m2 (medium)
Launch date: June 16, 1987
Source: Commonwealth of Independent States (former USSR) (CIS)
Launch site: PLESETSK MISSILE AND SPACE COMPLEX (PKMTR)
aabbcc
Your satellite tracking list
Your tracking list is empty




NASA's NSSDC Master Catalog

Two Line Element Set (TLE):
1 18120U 87051H   19020.59267550 +.00000003 +00000-0 +11346-3 0  9995
2 18120 074.0038 073.7551 0056904 169.3368 304.8925 12.57906348450908
Source of the keplerian elements: AFSPC